Weather History for Sheridan, WY

Change the Weather History Date:

Monday, February 25, 2013

  Actual Average Record
Temperature  
Mean Temperature 21 °F 29 °F  
Max Temperature 40 °F 42 °F 69 °F (1983)
Min Temperature 2 °F 16 °F -19 °F (1934)
Degree Days  
Heating Degree Days 44 36  
Month to date heating degree days 1014 967  
Since 1 July heating degree days 5209 5427  
Cooling Degree Days 0 0  
Month to date cooling degree days 0 0  
Year to date cooling degree days 0 0  
Moisture  
Dew Point 11 °F    
Average Humidity 65    
Maximum Humidity 86    
Minimum Humidity 44    
Precipitation  
Precipitation 0.00 in 0.02 in 0.30 in (1946)
Month to date precipitation 0.79 0.48  
Year to date precipitation 1.75 1.04  
Sea Level Pressure  
Sea Level Pressure 30.01 in    
Wind  
Wind Speed 5 mph (SW)    
Max Wind Speed 17 mph    
Max Gust Speed 22 mph    
Visibility 10 miles    
Events      
T = Trace of Precipitation, MM = Missing Value Source: NWS Daily Summary

Daily Weather History Graph

Daily Weather History Graph

Search for Another Location

Airport:

Trip Planner

Search our weather history database for the weather conditions in past years. The results will help you decide how hot, cold, wet, or windy it might be!

Date:

Astronomy

Feb. 25, 2013 Rise Set
Actual Time 6:51 AM MST 5:50 PM MST
Civil Twilight 6:22 AM MST 6:20 PM MST
Nautical Twilight 5:48 AM MST 6:54 PM MST
Astronomical Twilight 5:14 AM MST 7:27 PM MST
Moon 6:09 PM MST (2/25) 6:21 AM MST (2/25)
Length of Visible Light 11h 57m
Length of Day
10h 58m
Full, 100% of the Moon is Illuminated
Feb 25
Full
Feb 25
Full
Mar 4
Last Quarter
Mar 11
New
Mar 19
First Quarter

Hourly Weather History & Observations

Time (MST) Temp. Windchill Dew Point Humidity Pressure Visibility Wind Dir Wind Speed Gust Speed Precip Events Conditions
12:53 AM 5.0 °F -4.1 °F -0.0 °F 80% 30.17 in 10.0 mi South 4.6 mph - N/A   Clear
1:53 AM 3.9 °F - -0.9 °F 80% 30.16 in 10.0 mi Calm Calm - N/A   Clear
2:53 AM 6.1 °F - -0.9 °F 73% 30.14 in 10.0 mi Calm Calm - N/A   Clear
3:53 AM 7.0 °F - -0.9 °F 70% 30.12 in 10.0 mi North - - N/A   Clear
4:53 AM 5.0 °F -2.1 °F -2.0 °F 73% 30.12 in 10.0 mi SSW 3.5 mph - N/A   Clear
5:53 AM 8.1 °F - -0.0 °F 70% 30.13 in 10.0 mi Calm Calm - N/A   Clear
6:53 AM 12.0 °F 4.1 °F 1.9 °F 64% 30.11 in 10.0 mi South 4.6 mph - N/A   Clear
7:53 AM 12.0 °F - 3.0 °F 67% 30.10 in 10.0 mi Calm Calm - N/A   Clear
8:53 AM 14.0 °F - 3.9 °F 64% 30.11 in 10.0 mi Calm Calm - N/A   Clear
9:53 AM 21.9 °F - 7.0 °F 53% 30.05 in 10.0 mi Calm Calm - N/A   Clear
10:53 AM 25.0 °F 17.1 °F 12.0 °F 58% 30.01 in 10.0 mi NNW 6.9 mph - N/A   Clear
11:53 AM 28.9 °F 21.1 °F 14.0 °F 54% 29.99 in 10.0 mi NW 8.1 mph - N/A   Clear
12:53 PM 35.1 °F 31.0 °F 18.0 °F 50% 29.95 in 10.0 mi Variable 4.6 mph - N/A   Clear
1:53 PM 39.0 °F 31.0 °F 19.0 °F 45% 29.90 in 10.0 mi SSE 13.8 mph - N/A   Clear
2:53 PM 39.0 °F 31.8 °F 19.0 °F 45% 29.89 in 10.0 mi ESE 11.5 mph - N/A   Clear
3:53 PM 39.0 °F 34.8 °F 21.0 °F 49% 29.89 in 10.0 mi SSE 5.8 mph - N/A   Clear
4:53 PM 35.1 °F 30.1 °F 19.9 °F 54% 29.90 in 10.0 mi South 5.8 mph - N/A   Clear
5:53 PM 27.0 °F - 18.0 °F 69% 29.91 in 10.0 mi Calm Calm - N/A   Clear
6:53 PM 25.0 °F 19.3 °F 16.0 °F 69% 29.90 in 10.0 mi SSW 4.6 mph - N/A   Clear
7:53 PM 24.1 °F 17.0 °F 16.0 °F 71% 29.92 in 10.0 mi WNW 5.8 mph - N/A   Clear
8:53 PM 23.0 °F 15.8 °F 16.0 °F 74% 29.94 in 10.0 mi SSW 5.8 mph - N/A   Mostly Cloudy
9:53 PM 30.0 °F - 19.9 °F 66% 29.92 in 10.0 mi Calm Calm - N/A   Overcast
10:53 PM 32.0 °F 22.5 °F 21.0 °F 64% 29.93 in 10.0 mi NW 12.7 mph - N/A   Overcast
11:53 PM 32.0 °F 21.2 °F 21.0 °F 64% 29.94 in 10.0 mi WNW 16.1 mph - N/A   Overcast